Regional Weather Roundup
Issued by NWS

Home | Current Version | Previous Version | Text Only | Print | Product List | Glossary On
Versions: 1 2 3 4 5 6 7 8 9 10 11 12 13 14 15 16 17 18 19 20 21 22 23 24 25 26 27 28 29 30 31 32 33 34 35 36 37 38 39 40 41 42 43 44 45 46 47 48 49 50
000
ASUS43 KTOP 181208
RWRKS

WEATHER ROUNDUP FOR KANSAS
NATIONAL WEATHER SERVICE GOODLAND KS
600 AM CST SUN FEB 18 2018

NOTE:  "FAIR" INDICATES FEW OR NO CLOUDS BELOW 12,000 FEET WITH NO
SIGNIFICANT WEATHER AND/OR OBSTRUCTIONS TO VISIBILITY.

KSZ001>006-013>018-027>032-041>047-181300-
NORTHWEST KANSAS

CITY           SKY/WX    TMP DP  RH WIND       PRES   REMARKS
GOODLAND       CLOUDY    38  23  55 S17       29.64F WCI  28
6HR MIN TEMP:  35; 6HR MAX TEMP:  39;

HAYS           CLOUDY    42  21  43 S16       29.85F
HILL CITY      CLOUDY    44  23  43 S18G32    29.78F
6HR MIN TEMP:  37; 6HR MAX TEMP:  44;

RUSSELL        CLOUDY    44  23  43 S20       29.84F
6HR MIN TEMP:  41; 6HR MAX TEMP:  45;

$$

KSZ061>065-074>080-084>089-181300-
SOUTHWEST KANSAS

CITY           SKY/WX    TMP DP  RH WIND       PRES   REMARKS
DODGE CITY     CLOUDY    40  22  48 S22       29.87F WCI  30
6HR MIN TEMP:  35; 6HR MAX TEMP:  42;

ELKHART        MOCLDY    42  28  57 SW28G33   29.83F
GARDEN CITY    CLOUDY    40  22  48 S22G37    29.83F WCI  30
6HR MIN TEMP:  30; 6HR MAX TEMP:  41;

GREAT BEND     CLOUDY    43  20  39 S16       29.90F
LIBERAL        CLOUDY    41  24  51 S21       29.89F
PRATT          PTCLDY    38  24  55 S15       29.95F WCI  30
6HR MIN TEMP:  36; 6HR MAX TEMP:  41;

$$

KSZ066>073-081>083-090>101-181300-
SOUTHEAST KANSAS

CITY           SKY/WX    TMP DP  RH WIND       PRES   REMARKS
CHANUTE        CLOUDY    37  33  85 SE12      30.10F WCI  29
6HR MIN TEMP:  30; 6HR MAX TEMP:  37;

COFFEYVILLE    CLOUDY    35  32  88 S9        30.13F
6HR MIN TEMP:  33; 6HR MAX TEMP:  36;

HUTCHINSON     CLOUDY    39  27  62 S18       29.97F WCI  30
6HR MIN TEMP:  32; 6HR MAX TEMP:  41;

MEDICINE LODGE   N/A     34  27  75 S9        29.99F
NEWTON         CLOUDY    40  26  57 S22       29.99F WCI  30
PARSONS        CLOUDY    36  33  89 SE6       30.13F
6HR MIN TEMP:  28; 6HR MAX TEMP:  38;

WICHITA INTL   PTCLDY    39  30  70 S14       30.02F WCI  31
6HR MIN TEMP:  31; 6HR MAX TEMP:  39;

WICHITA JABRA  CLOUDY    38  30  73 S15       30.02F WCI  29
6HR MIN TEMP:  33; 6HR MAX TEMP:  38;

WICHITA MCCONL CLOUDY    41  31  67 S17G25    30.02F
WINFIELD       PTCLDY    39  34  82 S12       30.07F WCI  32
6HR MIN TEMP:  33; 6HR MAX TEMP:  39;

$$

KSZ007>012-019>026-033>040-048>060-102>105-181300-
NORTHEAST KANSAS

CITY           SKY/WX    TMP DP  RH WIND       PRES   REMARKS
CONCORDIA      CLOUDY    40  22  48 S18G26    29.89F WCI  31
6HR MIN TEMP:  37; 6HR MAX TEMP:  42;

EMPORIA        CLOUDY    36  31  82 S15G22    30.03F WCI  27
6HR MIN TEMP:  31; 6HR MAX TEMP:  36;

LAWRENCE       CLOUDY    36  32  85 E10       30.06F WCI  28
6HR MIN TEMP:  22; 6HR MAX TEMP:  38;

MANHATTAN      CLOUDY    42  25  50 S10       29.98F
6HR MIN TEMP:  26; 6HR MAX TEMP:  44;

MARYSVILLE     CLOUDY    41  27  56 S15       29.93F
OLATHE IND     CLOUDY    36  33  89 S12       30.09F WCI  28
6HR MIN TEMP:  26; 6HR MAX TEMP:  37;

OLATHE EXE     CLOUDY    37  33  85 S9        30.08F
6HR MIN TEMP:  32; 6HR MAX TEMP:  38;

SALINA         CLOUDY    40  24  53 S17       29.94F WCI  31
6HR MIN TEMP:  30; 6HR MAX TEMP:  42;

TOPEKA BILLARD CLOUDY    42  33  70 S10       30.04F
6HR MIN TEMP:  25; 6HR MAX TEMP:  42;

TOPEKA FORBES  CLOUDY    40  33  76 S13       30.03F WCI  32
6HR MIN TEMP:  26; 6HR MAX TEMP:  41;

$$




USA.gov is the U.S. government's official web portal to all federal, state and local government web resources and services.